DMSP 5D-2 F13 DEB, 40673

Orbit data source: Space-Track

DMSP 5D-2 F13 DEB, 40673 is space debris in SSO originally from a launch on Fri, 24 Mar 1995 UTC launched from the Air Force Western Test Range (AFWTR). Debris objects in space refer to the collection of defunct objects orbiting the Earth. Examples of debris include non-operational satellites, rocket bodies, and fragments generated from explosions, collisions, or faulty payload assembly.

Loading next visibility...
Identifier
40673, 1995-015FM
Orbit
SSO
Country
Flag of USUS
Related business
Manufacturer
Unknown
Mission
Spacecraft
Bus & Motor
Unknown
Mass
Unknown
Launch date (UTC)
1995-03-24 (31 years ago)
Launch vehicle
Unknown
Launch site
Air Force Western Test Range (AFWTR)
Object type
Payload
Rocket body
Debris
Shape & HBR
Unknown shape, 0.1 m
Radar Cross Section
Small (<0.1 m²)

Expand to show TLE details & history
Last TLE update: 23 hours ago

TLE from 23 hours ago
0 DMSP 5D-2 F13 DEB
1 40673U 95015FM  25309.50624007  .00000616  00000-0  29562-3 0  9993
2 40673  98.7075 323.4661 0022605 316.7261  43.2140 14.22418336548931
Epoch: 2025-11-05T12:08Z
TLE epoch observation values (Epoch: 2025-11-05T12:08:59.142Z)
Latitude
-0.00006°
Longitude
96.24175°
Altitude
808.265 km
Speed
7.455 km/s
True Right ascension
21h 33m 51s
True Declination
0° 00' 00"
Sunlit
Object was in daylight at epoch
Visualization orbit readout
Latitude
Unknown
Longitude
Unknown
Altitude
Unknown
Speed
Unknown
Apparent Right ascension
Unknown
Apparent Declination
Unknown
Sunlit
N/A
Visualization observer readout
Local Sidereal Time
07:41:38
Azimuth
Unknown
Elevation
Unknown
Doppler factor
Unknown
Orbital elements
Apogee altitude
830.6 km
Perigee altitude
798.082 km
Semi-major axis
7,192.478 km
Eccentricity
0.00226
Inclination
98.7075°
RAAN
323.4661°
Arg. of periapsis
316.7261°
True anomaly
43.39173°
Mean anomaly
43.214°
Eccentric anomaly
43.30283°
Mean motion
3.55816 °/min
Orbital period
101.18 mins
BSTAR
0.00029562
Loading maneuver chart data...
Computing Atmospheric mass density...

Documentation

Showing up to 5 results
|